K5TWC Weather Reports


time (UTC)temp
F
wind
direction
speed
knots
gust
knots
rain 1hr
in
rain 24hr
in
rain mn
in
humidity
%
barometer
mb
20210723163056 90 323 1.7 6.1 0.00 0.00 0.00 65 1018.3
20210723161607 89 234 0.9 7.0 0.00 0.00 0.00 67 1018.3
20210723160042 89 277 0.9 4.3 0.00 0.00 0.00 69 1018.3
20210723154550 88 247 1.7 7.0 0.00 0.00 0.00 68 1018.4
20210723153027 88 211 0.9 6.1 0.00 0.00 0.00 70 1018.4
20210723151525 86 225 0.9 6.1 0.00 0.00 0.00 74 1018.5
20210723150044 84 288 0.0 6.1 0.00 0.00 0.00 75 1018.5
20210723144514 86 267 0.9 10.4 0.00 0.00 0.00 73 1018.5
20210723143024 86 51 0.9 5.2 0.00 0.00 0.00 74 1018.4
20210723141530 84 304 0.0 7.8 0.00 0.00 0.00 76 1018.3
20210723140008 84 171 1.7 5.2 0.00 0.00 0.00 75 1018.3
20210723134512 83 130 0.0 4.3 0.00 0.00 0.00 77 1018.3
20210723133208 82 227 0.9 3.5 0.00 0.00 0.00 77 1018.2
20210723131624 82 275 0.0 4.3 0.00 0.00 0.00 79 1018.2
20210723130150 81 220 0.0 3.5 0.00 0.00 0.00 80 1018.0
20210723124756 79 262 0.0 2.6 0.00 0.00 0.00 83 1018.0
20210723123154 78 259 0.0 2.6 0.00 0.00 0.00 86 1018.0
20210723121745 76 273 0.0 0.9 0.00 0.00 0.00 88 1017.9
20210723120143 75 273 0.0 0.9 0.00 0.00 0.00 89 1017.8
20210723114740 75 273 0.0 0.0 0.00 0.00 0.00 89 1017.8
20210723113131 75 273 0.0 1.7 0.00 0.00 0.00 88 1017.7
20210723111646 75 249 0.0 2.6 0.00 0.00 0.00 89 1017.4
20210723110205 75 248 0.0 0.9 0.00 0.00 0.00 89 1017.3
20210723104733 75 248 0.0 0.9 0.00 0.00 0.00 89 1017.3
20210723103213 75 248 0.0 0.0 0.00 0.00 0.00 88 1017.4
20210723101642 75 247 0.0 0.9 0.00 0.00 0.00 88 1017.3
20210723100240 76 247 0.0 0.9 0.00 0.00 0.00 87 1017.3
20210723094717 76 247 0.0 2.6 0.00 0.00 0.00 87 1017.3
20210723093113 76 248 0.0 1.7 0.00 0.00 0.00 87 1017.2
20210723091602 76 248 0.0 0.9 0.00 0.00 0.00 86 1017.2
20210723090118 77 249 0.0 0.9 0.00 0.00 0.00 86 1017.2
20210723084645 77 248 0.0 3.5 0.00 0.00 0.00 85 1017.2
20210723083048 77 220 0.0 1.7 0.00 0.00 0.00 85 1017.3
20210723081625 77 220 0.0 0.9 0.00 0.00 0.00 84 1017.3
20210723080135 78 220 0.0 1.7 0.00 0.00 0.00 83 1017.3
20210723074549 78 130 0.0 5.2 0.00 0.00 0.00 83 1017.3
20210723073103 78 179 0.0 3.5 0.00 0.00 0.00 82 1017.3
20210723071649 79 250 0.0 2.6 0.00 0.00 0.00 81 1017.2
20210723070105 79 259 0.0 3.5 0.00 0.00 0.00 81 1017.2
20210723064622 80 305 0.0 2.6 0.00 0.00 0.00 81 1017.1
20210723063052 80 42 0.0 2.6 0.00 0.00 0.00 80 1017.0
20210723061551 80 221 0.9 3.5 0.00 0.00 0.00 80 1016.9
20210723060135 81 246 0.0 3.5 0.00 0.00 0.00 79 1017.0
20210723054557 81 177 0.0 6.1 0.00 0.00 0.00 78 1016.9
20210723053102 82 234 0.0 7.0 0.00 0.00 0.00 78 1017.0
20210723051526 82 212 0.0 3.5 0.00 0.00 0.00 77 1016.9
20210723050112 82 222 0.0 3.5 0.00 0.00 0.00 77 1016.8
20210723044603 83 209 0.0 3.5 0.00 0.00 0.00 77 1016.7
20210723043046 83 209 0.0 3.5 0.00 0.00 0.00 76 1016.6
20210723041537 83 217 0.0 3.5 0.00 0.00 0.00 75 1016.7
20210723040020 83 222 0.0 3.5 0.00 0.00 0.00 75 1016.7
20210723034528 84 119 0.9 4.3 0.00 0.00 0.00 75 1016.7
20210723033018 84 121 0.9 6.1 0.00 0.00 0.00 75 1016.7
20210723031517 84 121 1.7 6.1 0.00 0.00 0.00 74 1016.7
20210723030031 84 118 0.9 7.0 0.00 0.00 0.00 74 1016.7
20210723024515 85 109 0.9 4.3 0.00 0.00 0.00 74 1016.4
20210723023023 85 112 0.9 4.3 0.00 0.00 0.00 72 1016.4
20210723021538 85 109 0.9 4.3 0.00 0.00 0.00 72 1016.3
20210723020011 86 104 0.9 4.3 0.00 0.00 0.00 70 1016.2
20210723014559 86 113 0.9 4.3 0.00 0.00 0.00 70 1016.0
20210723013009 87 136 0.9 5.2 0.00 0.00 0.00 69 1016.1
20210723011508 88 167 1.7 8.7 0.00 0.00 0.00 68 1016.2
20210723010019 88 144 0.0 5.2 0.00 0.00 0.00 66 1016.1
20210723004510 89 131 1.7 6.1 0.00 0.00 0.00 65 1015.7
20210723003010 90 165 3.5 9.6 0.00 0.00 0.00 63 1015.6
20210723001508 91 113 2.6 8.7 0.00 0.00 0.00 61 1015.4
20210723000007 92 157 3.5 7.8 0.00 0.00 0.00 60 1015.4
20210722234510 92 150 2.6 8.7 0.00 0.00 0.00 58 1015.2
20210722233011 93 96 2.6 11.3 0.00 0.00 0.00 56 1015.4
20210722231502 93 120 2.6 7.0 0.00 0.00 0.00 56 1015.4
20210722230008 93 134 1.7 10.4 0.00 0.00 0.00 57 1015.4
20210722224501 93 137 1.7 6.1 0.00 0.00 0.00 56 1015.6
20210722223254 93 126 1.7 7.8 0.00 0.00 0.00 57 1015.7
20210722221710 92 134 1.7 7.0 0.00 0.00 0.00 57 1015.7
20210722220158 92 138 2.6 7.0 0.00 0.00 0.00 57 1015.7
20210722214806 92 138 2.6 8.7 0.00 0.00 0.00 58 1016.0
20210722213148 92 157 1.7 8.7 0.00 0.00 0.00 56 1016.2
20210722211741 93 126 2.6 8.7 0.00 0.00 0.00 56 1016.3
20210722210210 93 138 1.7 6.1 0.00 0.00 0.00 55 1016.4
20210722204702 93 136 0.9 7.8 0.00 0.00 0.00 56 1016.6
20210722203135 93 148 3.5 8.7 0.00 0.00 0.00 57 1016.8
20210722201637 94 104 1.7 7.8 0.00 0.00 0.00 55 1017.0
20210722200206 94 135 1.7 7.0 0.00 0.00 0.00 55 1017.2
20210722194652 92 113 2.6 10.4 0.00 0.00 0.00 58 1017.3
20210722193127 92 119 4.3 8.7 0.00 0.00 0.00 57 1017.3
20210722191639 93 117 3.5 8.7 0.00 0.00 0.00 56 1017.6
20210722190132 93 119 0.9 9.6 0.00 0.00 0.00 57 1017.8
20210722184748 94 111 0.9 6.1 0.00 0.00 0.00 57 1017.8
20210722183209 93 171 0.0 7.8 0.00 0.00 0.00 56 1017.9
20210722181747 92 134 2.6 7.0 0.00 0.00 0.00 58 1018.1
20210722180100 92 182 1.7 7.8 0.00 0.00 0.00 58 1018.3
20210722174637 92 130 1.7 9.6 0.00 0.00 0.00 59 1018.4
20210722173130 92 126 3.5 9.6 0.00 0.00 0.00 60 1018.4
20210722171554 91 113 2.6 8.7 0.00 0.00 0.00 61 1018.6
20210722170130 91 131 1.7 7.0 0.00 0.00 0.00 61 1018.8
20210722164550 91 145 2.6 7.0 0.00 0.00 0.00 61 1018.8